User: anonymous   Login
Location: Innsbruck
(47.2657°N, 11.3914°E)
Time: 03:07:30
(UTC+01:00)
Language:

XW-2D - Orbit

View from above orbital plane
View from above orbital plane
View from above satellite
View from above satellite

Ground track
Ground track

The orbit data is extracted from the following two-line orbital elements,

1 40907U 15049J   21332.51428606  .00001701  00000-0  87829-4 0  9999
2 40907  97.4897 332.7678 0013186 341.3549 174.5458 15.17624673342476
Epoch (UTC): 28 November 2021 12:20:34
Eccentricity: 0.0013186
inclination: 97.4897°
perigee height: 504 km
apogee height: 522 km
right ascension of ascending node: 332.7678°
argument of perigee: 341.3549°
revolutions per day: 15.17624673
mean anomaly at epoch: 174.5458°
orbit number at epoch: 34247

The dashed part of the orbit path shows where the satellite is in the earth's shadow,  

DLR